Radiation Dose at Monitoring Post of Fukushima Daini Nuclear Power Station
Date,Time,MP-1(microSv/h),MP-2(microSv/h),MP-3(microSv/h),MP-4(microSv/h),MP-5(microSv/h),MP-6(microSv/h),MP-7(microSv/h),Wind Direction,Wind Velocity(m/s),Rain
2020/10/15,00:00,0.173,0.154,0.250,0.240,0.241,0.135,0.082,southwest,1.5,No
2020/10/15,00:10,0.174,0.154,0.252,0.239,0.243,0.135,0.083,southwest,3.7,No
2020/10/15,00:20,0.173,0.154,0.252,0.240,0.240,0.136,0.083,southwest,5.2,Yes
2020/10/15,00:30,0.175,0.154,0.252,0.239,0.243,0.137,0.084,southwest,5.5,Yes
2020/10/15,00:40,0.173,0.156,0.253,0.240,0.242,0.136,0.084,west-southwest,5.7,No
2020/10/15,00:50,0.174,0.153,0.253,0.238,0.244,0.136,0.083,west-southwest,4.8,No
2020/10/15,01:00,0.172,0.155,0.252,0.239,0.242,0.136,0.083,west-southwest,4.4,No
2020/10/15,01:10,0.175,0.154,0.252,0.240,0.242,0.136,0.082,west-southwest,3.9,No
2020/10/15,01:20,0.173,0.155,0.251,0.238,0.242,0.135,0.083,west,4.0,No
2020/10/15,01:30,0.175,0.154,0.250,0.239,0.241,0.135,0.082,west,5.5,No
2020/10/15,01:40,0.172,0.154,0.252,0.237,0.242,0.135,0.083,west,5.5,No
2020/10/15,01:50,0.173,0.154,0.251,0.240,0.242,0.135,0.082,west,4.9,No
2020/10/15,02:00,0.172,0.154,0.252,0.238,0.242,0.135,0.083,west-northwest,4.9,No
2020/10/15,02:10,0.174,0.154,0.250,0.238,0.240,0.136,0.082,west-northwest,5.4,No
2020/10/15,02:20,0.173,0.154,0.251,0.238,0.243,0.135,0.083,west-northwest,4.9,No
2020/10/15,02:30,0.173,0.154,0.251,0.240,0.240,0.135,0.081,west-northwest,4.1,No
2020/10/15,02:40,0.172,0.154,0.252,0.237,0.244,0.134,0.082,west-northwest,3.5,Yes
2020/10/15,02:50,0.174,0.155,0.251,0.240,0.242,0.135,0.081,west,2.1,Yes
2020/10/15,03:00,0.172,0.154,0.252,0.239,0.244,0.135,0.082,west-northwest,1.5,No
2020/10/15,03:10,0.175,0.155,0.250,0.240,0.242,0.135,0.082,northwest,2.0,No
2020/10/15,03:20,0.173,0.153,0.253,0.238,0.244,0.135,0.082,northwest,2.2,No
2020/10/15,03:30,0.174,0.154,0.251,0.240,0.241,0.135,0.082,northwest,4.2,No
2020/10/15,03:40,0.174,0.154,0.253,0.238,0.244,0.135,0.082,northwest,5.5,No
2020/10/15,03:50,0.174,0.154,0.251,0.240,0.242,0.136,0.082,northwest,6.0,No
2020/10/15,04:00,0.172,0.155,0.251,0.239,0.242,0.135,0.083,northwest,6.6,No
2020/10/15,04:10,0.173,0.153,0.251,0.238,0.240,0.135,0.082,northwest,6.6,No
2020/10/15,04:20,0.172,0.154,0.252,0.239,0.244,0.135,0.082,northwest,6.1,No
2020/10/15,04:30,0.174,0.155,0.252,0.240,0.241,0.135,0.082,northwest,5.5,No
2020/10/15,04:40,0.173,0.155,0.251,0.238,0.243,0.135,0.083,north-northwest,4.8,No
2020/10/15,04:50,0.174,0.154,0.252,0.238,0.241,0.137,0.083,north-northwest,5.3,No
2020/10/15,05:00,0.173,0.155,0.250,0.239,0.243,0.136,0.083,north,6.8,No
2020/10/15,05:10,0.173,0.153,0.252,0.237,0.241,0.136,0.083,north,7.2,No
2020/10/15,05:20,0.174,0.155,0.250,0.239,0.243,0.135,0.082,north,6.8,No
2020/10/15,05:30,0.174,0.154,0.252,0.238,0.241,0.135,0.082,north,7.8,No
2020/10/15,05:40,0.173,0.154,0.251,0.240,0.244,0.135,0.082,north-northwest,7.0,No
2020/10/15,05:50,0.173,0.155,0.253,0.238,0.241,0.135,0.082,north-northwest,6.9,No
2020/10/15,06:00,0.173,0.154,0.250,0.239,0.242,0.135,0.082,north-northwest,7.0,No
2020/10/15,06:10,0.174,0.154,0.251,0.237,0.241,0.135,0.082,north-northwest,6.9,No
2020/10/15,06:20,0.173,0.153,0.252,0.238,0.243,0.136,0.083,north-northwest,6.7,No
2020/10/15,06:30,0.174,0.154,0.252,0.238,0.242,0.135,0.082,north-northwest,6.5,No
2020/10/15,06:40,0.173,0.154,0.252,0.239,0.244,0.134,0.082,north-northwest,6.5,No
2020/10/15,06:50,0.174,0.155,0.250,0.238,0.242,0.134,0.082,north-northwest,6.8,No
2020/10/15,07:00,0.172,0.154,0.252,0.238,0.244,0.135,0.083,north-northwest,7.4,No
2020/10/15,07:10,0.174,0.154,0.251,0.239,0.241,0.135,0.082,north-northwest,7.6,No
2020/10/15,07:20,0.173,0.154,0.252,0.238,0.243,0.135,0.082,north-northwest,7.3,No
2020/10/15,07:30,0.174,0.154,0.251,0.239,0.240,0.135,0.082,north-northwest,6.9,No
2020/10/15,07:40,0.171,0.153,0.251,0.238,0.243,0.135,0.083,north-northwest,7.6,No
2020/10/15,07:50,0.174,0.154,0.250,0.239,0.241,0.135,0.083,north-northwest,6.8,No
2020/10/15,08:00,0.173,0.152,0.252,0.238,0.243,0.135,0.082,north,7.0,No
2020/10/15,08:10,0.174,0.153,0.250,0.240,0.240,0.135,0.082,north,6.6,No
2020/10/15,08:20,0.174,0.154,0.252,0.237,0.243,0.134,0.082,north-northwest,6.3,No
2020/10/15,08:30,0.174,0.153,0.252,0.240,0.240,0.135,0.083,north,5.8,No
2020/10/15,08:40,0.173,0.154,0.252,0.237,0.244,0.135,0.082,north-northwest,5.3,No
2020/10/15,08:50,0.174,0.153,0.250,0.238,0.242,0.135,0.082,north-northwest,5.8,No
2020/10/15,09:00,0.173,0.155,0.252,0.238,0.243,0.134,0.082,north,5.4,No
2020/10/15,09:10,0.174,0.153,0.251,0.238,0.240,0.135,0.082,north-northwest,5.4,No
2020/10/15,09:20,0.172,0.155,0.251,0.237,0.243,0.134,0.082,north,5.5,No
2020/10/15,09:30,0.173,0.153,0.252,0.239,0.241,0.136,0.081,north,5.0,No
2020/10/15,09:40,0.172,0.154,0.251,0.238,0.243,0.135,0.082,north,5.1,No
2020/10/15,09:50,0.174,0.154,0.252,0.238,0.242,0.135,0.082,north,4.2,No
2020/10/15,10:00,0.173,0.154,0.251,0.239,0.241,0.135,0.082,north,3.1,No
2020/10/15,10:10,0.173,0.154,0.252,0.240,0.242,0.136,0.083,north,5.4,No
2020/10/15,10:20,0.174,0.153,0.251,0.238,0.241,0.134,0.082,north,5.1,No
2020/10/15,10:30,0.174,0.154,0.253,0.239,0.242,0.135,0.081,north,5.3,No
2020/10/15,10:40,0.173,0.154,0.251,0.238,0.242,0.135,0.082,north,5.4,No
2020/10/15,10:50,0.174,0.153,0.253,0.238,0.243,0.135,0.082,north,5.1,No
2020/10/15,11:00,0.173,0.153,0.251,0.237,0.241,0.136,0.082,north,4.9,No
2020/10/15,11:10,0.173,0.154,0.252,0.239,0.243,0.136,0.082,north,4.4,No
2020/10/15,11:20,0.174,0.154,0.252,0.238,0.241,0.135,0.083,north,3.9,No
2020/10/15,11:30,0.173,0.155,0.252,0.238,0.243,0.135,0.082,north-northwest,2.8,No
2020/10/15,11:40,0.173,0.155,0.252,0.238,0.240,0.135,0.082,north,4.2,No
2020/10/15,11:50,0.174,0.154,0.252,0.239,0.243,0.134,0.082,north,3.0,No
2020/10/15,12:00,0.173,0.154,0.252,0.238,0.241,0.136,0.082,north,5.3,No
2020/10/15,12:10,0.173,0.154,0.251,0.239,0.243,0.135,0.082,north,4.3,No
2020/10/15,12:20,0.174,0.153,0.252,0.239,0.241,0.136,0.083,north,4.0,No
2020/10/15,12:30,0.174,0.154,0.251,0.238,0.243,0.135,0.081,north-northwest,4.4,No
2020/10/15,12:40,0.174,0.153,0.253,0.240,0.242,0.135,0.083,north-northwest,3.0,No
2020/10/15,12:50,0.174,0.154,0.251,0.239,0.242,0.135,0.083,north-northwest,3.7,No
2020/10/15,13:00,0.173,0.153,0.254,0.238,0.242,0.135,0.082,north,3.5,No
2020/10/15,13:10,0.173,0.154,0.251,0.239,0.241,0.135,0.082,north-northwest,2.3,No
2020/10/15,13:20,0.173,0.153,0.253,0.238,0.244,0.135,0.082,north,3.3,No
2020/10/15,13:30,0.174,0.154,0.250,0.239,0.241,0.136,0.082,north,3.6,No
2020/10/15,13:40,0.173,0.153,0.253,0.237,0.243,0.134,0.081,north,3.6,No
2020/10/15,13:50,0.174,0.154,0.251,0.239,0.241,0.136,0.082,north-northeast,4.2,No
2020/10/15,14:00,0.173,0.153,0.252,0.236,0.243,0.135,0.081,northeast,3.7,No
2020/10/15,14:10,0.174,0.154,0.251,0.239,0.242,0.136,0.081,north-northeast,4.5,No
2020/10/15,14:20,0.172,0.153,0.252,0.238,0.242,0.134,0.081,north-northeast,5.4,No
2020/10/15,14:30,0.174,0.154,0.251,0.240,0.242,0.135,0.082,north,3.7,No
2020/10/15,14:40,0.173,0.154,0.251,0.237,0.240,0.136,0.082,north,4.1,No
2020/10/15,14:50,0.175,0.154,0.251,0.239,0.242,0.135,0.082,north,3.6,No
2020/10/15,15:00,0.173,0.154,0.251,0.238,0.241,0.135,0.083,north,4.0,No
2020/10/15,15:10,0.174,0.153,0.251,0.238,0.243,0.135,0.082,north,4.1,No
2020/10/15,15:20,0.172,0.153,0.252,0.237,0.241,0.134,0.082,north-northwest,3.8,No
2020/10/15,15:30,0.173,0.155,0.252,0.239,0.243,0.134,0.082,north,3.0,No
2020/10/15,15:40,0.173,0.153,0.253,0.238,0.241,0.134,0.082,north,3.3,No
2020/10/15,15:50,0.174,0.153,0.251,0.239,0.243,0.135,0.082,north-northwest,2.6,No
2020/10/15,16:00,0.173,0.154,0.253,0.237,0.241,0.135,0.081,north-northwest,2.3,No
2020/10/15,16:10,0.175,0.155,0.251,0.240,0.242,0.135,0.082,north-northwest,3.2,No
2020/10/15,16:20,0.173,0.153,0.252,0.237,0.241,0.135,0.082,north-northwest,3.5,No
2020/10/15,16:30,0.174,0.154,0.251,0.239,0.243,0.135,0.081,north-northwest,3.7,No
2020/10/15,16:40,0.174,0.154,0.252,0.238,0.241,0.135,0.082,north-northwest,3.8,No
2020/10/15,16:50,0.174,0.155,0.251,0.239,0.242,0.135,0.081,north-northwest,3.8,No
2020/10/15,17:00,0.173,0.154,0.253,0.238,0.242,0.135,0.082,north-northwest,4.4,No
2020/10/15,17:10,0.174,0.154,0.251,0.239,0.243,0.135,0.082,north-northwest,3.4,No
2020/10/15,17:20,0.172,0.155,0.252,0.239,0.242,0.135,0.082,north-northwest,3.4,No
2020/10/15,17:30,0.174,0.154,0.252,0.238,0.243,0.135,0.083,north-northwest,3.1,No
2020/10/15,17:40,0.174,0.153,0.253,0.239,0.241,0.135,0.082,north-northwest,3.3,No
2020/10/15,17:50,0.173,0.153,0.252,0.238,0.242,0.136,0.082,northwest,2.7,No
2020/10/15,18:00,0.172,0.154,0.251,0.240,0.241,0.136,0.083,north-northwest,3.8,No
2020/10/15,18:10,0.174,0.154,0.252,0.237,0.244,0.135,0.083,north-northwest,4.1,No
2020/10/15,18:20,0.173,0.154,0.252,0.240,0.240,0.136,0.082,north-northwest,4.4,No
2020/10/15,18:30,0.174,0.154,0.253,0.238,0.244,0.135,0.082,north-northwest,5.8,No
2020/10/15,18:40,0.172,0.154,0.252,0.240,0.242,0.135,0.082,northwest,6.2,No
2020/10/15,18:50,0.175,0.155,0.253,0.239,0.244,0.134,0.082,north-northwest,6.6,No
2020/10/15,19:00,0.173,0.154,0.252,0.239,0.243,0.136,0.083,northwest,7.0,No
2020/10/15,19:10,0.174,0.155,0.253,0.239,0.243,0.135,0.082,north-northwest,7.3,No
2020/10/15,19:20,0.173,0.154,0.252,0.239,0.241,0.135,0.082,northwest,8.3,No
2020/10/15,19:30,0.175,0.155,0.250,0.240,0.243,0.136,0.082,north-northwest,8.1,No
2020/10/15,19:40,0.174,0.154,0.253,0.237,0.242,0.134,0.081,north-northwest,8.3,No
2020/10/15,19:50,0.173,0.154,0.251,0.241,0.244,0.135,0.082,north-northwest,7.7,No
2020/10/15,20:00,0.174,0.154,0.253,0.239,0.242,0.135,0.082,north-northwest,7.8,No
2020/10/15,20:10,0.175,0.154,0.251,0.240,0.243,0.135,0.082,north-northwest,7.4,No
2020/10/15,20:20,0.175,0.155,0.251,0.239,0.243,0.135,0.082,north-northwest,6.4,No
2020/10/15,20:30,0.173,0.156,0.253,0.239,0.241,0.135,0.083,north-northwest,6.9,No
2020/10/15,20:40,0.174,0.154,0.252,0.240,0.245,0.136,0.082,north-northwest,6.4,No
2020/10/15,20:50,0.174,0.155,0.254,0.239,0.241,0.136,0.082,north-northwest,6.4,No
2020/10/15,21:00,0.174,0.154,0.252,0.240,0.244,0.135,0.082,north-northwest,7.6,No
2020/10/15,21:10,0.174,0.155,0.252,0.239,0.242,0.135,0.081,north-northwest,7.5,No
2020/10/15,21:20,0.174,0.154,0.254,0.239,0.243,0.135,0.083,north-northwest,7.6,No
2020/10/15,21:30,0.174,0.154,0.252,0.240,0.242,0.135,0.082,north-northwest,7.2,No
2020/10/15,21:40,0.174,0.155,0.254,0.239,0.244,0.135,0.082,north-northwest,6.8,No
2020/10/15,21:50,0.174,0.155,0.252,0.240,0.242,0.135,0.082,north-northwest,7.0,No
2020/10/15,22:00,0.174,0.155,0.253,0.239,0.241,0.135,0.082,northwest,7.3,No
2020/10/15,22:10,0.174,0.153,0.252,0.240,0.243,0.135,0.082,north-northwest,7.6,No
2020/10/15,22:20,0.174,0.155,0.252,0.240,0.240,0.135,0.083,north-northwest,7.4,No
2020/10/15,22:30,0.174,0.155,0.252,0.239,0.243,0.136,0.082,north-northwest,6.9,No
2020/10/15,22:40,0.175,0.154,0.252,0.239,0.241,0.136,0.082,north-northwest,7.0,No
2020/10/15,22:50,0.174,0.154,0.253,0.238,0.243,0.135,0.082,north-northwest,7.3,No
2020/10/15,23:00,0.175,0.155,0.253,0.239,0.242,0.135,0.082,north-northwest,8.1,No
2020/10/15,23:10,0.174,0.154,0.253,0.240,0.242,0.135,0.082,north-northwest,8.1,No
2020/10/15,23:20,0.173,0.155,0.254,0.238,0.244,0.136,0.082,north-northwest,8.1,No
2020/10/15,23:30,0.175,0.154,0.252,0.240,0.242,0.135,0.082,north-northwest,8.2,No
2020/10/15,23:40,0.173,0.153,0.251,0.240,0.243,0.135,0.082,north-northwest,8.4,No
2020/10/15,23:50,0.175,0.155,0.254,0.240,0.243,0.135,0.083,northwest,7.4,No
